www.pogodaiklimat.ru

АРХИВ ПОГОДЫ в Сент-Луисе

Время (UTC), дата Ветер
(напр.,м/с)
 
Видим.   Явления Облачность Т
(С)
Тd
(С)
f
(%)
Тe
(С)
Тes
(С)
Комфортность

P
(гПа)

Po
(гПа)
Тmin
(С)
Tmax
(С)
R
(мм)
SD
(см)
21:51 23.05   16 км    5/2 900 м
[верхняя] 
+26.7  +17.8  58  +31  +39  душно  1017.2  996.1         
22:51 23.05 С  16 км    8/2 1800 м
[верхняя] 
+26.7  +17.8  58  +31  +34  душно  1016.8  995.8  +23.3  +27.8     
23:51 23.05 В  16 км    8/5 1650 м
[средняя верхняя] 
+25.0  +18.9  69  +30  +30  душно  1016.9           
00:51 24.05 В  16 км    8/2 1350 м
[средняя верхняя] 
+24.4  +18.3  69  +29  +29  душно  1017.0           
01:51 24.05 В  16 км    8/5 1200 м
[средняя] 
+23.9  +18.9  74  +29  +29  душно  1017.2  996.1         
02:51 24.05 ЮВ  16 км    8/8 1050 м  +23.9  +18.3  71  +28  +28  душно  1017.2  996.1         
03:51 24.05 ЮВ  16 км    8/8 960 м
[верхняя] 
+23.9  +18.3  71  +28  +28  душно  1017.0  995.8         
04:51 24.05 В  16 км    8/8 1380 м
[верхняя] 
+23.3  +18.9  76  +30  +30  очень
душно 
1016.6  995.5  +23.3  +27.2     
05:51 24.05 В  16 км    2/2 1800 м
[верхняя] 
+22.8  +18.9  79  +29  +29  очень
душно 
1016.2  995.1         
06:51 24.05 Ю  16 км    8/0 7500 м
[верхняя] 
+23.3  +18.9  76  +30  +30  очень
душно 
1016.2  995.1         
07:51 24.05 ЮЗ  16 км    8/0 7500 м
[верхняя] 
+23.3  +20.0  82  +30  +30  очень
душно 
1016.1  995.1         
08:51 24.05 Ю  16 км    8/0 7500 м
[верхняя] 
+22.8  +20.0  84  +29  +29  очень
душно 
1016.1  995.1         
09:51 24.05 Ю  14 км    8/0 7500 м
[верхняя] 
+22.8  +20.0  84  +29  +29  очень
душно 
1016.3  995.5         
10:51 24.05 Ю  14 км    8/0 7500 м
[верхняя] 
+22.8  +19.4  81  +29  +29  очень
душно 
1016.7  995.8  +22.2  +23.3     
11:51 24.05 ЮЗ  16 км    8/0 4500 м
[средняя верхняя] 
+24.4  +20.0  76  +30  +30  очень
душно 
1017.0  996.1         
12:51 24.05 ЮЗ  6
{11} 
16 км    8/0 2400 м
[средняя верхняя] 
+27.2  +20.0  65  +33  +34  очень
душно 
1017.1  996.1         
13:51 24.05 ЮЗ  8
{13} 
16 км    8/0 2400 м
[средняя верхняя] 
+28.3  +20.0  61  +35  +35  очень
душно 
1016.7  995.8         
14:51 24.05 ЮЗ  8
{13} 
16 км    5/0 2400 м
[средняя верхняя] 
+30.0  +19.4  53  +36  +37  очень
душно 
1016.3  995.5         
15:51 24.05 ЮЗ  9
{12} 
16 км    5/2 1650 м
[средняя верхняя] 
+31.1  +20.0  52  +38  +38  очень
душно 
1016.4  995.5         
16:51 24.05 ЮЗ  9
{13} 
16 км    2/2 1350 м
[верхняя] 
+31.7  +20.0  50  +38  +39  очень
душно 
1016.1  995.1  +22.8  +31.7     
17:51 24.05 ЮЗ  16 км    5/2 1350 м
[верхняя] 
+32.8  +20.0  47  +39  +41  очень
душно 
1015.4  994.5         
18:51 24.05 ЮЗ  6
{10} 
16 км    5/5 1650 м
[верхняя] 
+31.7  +18.3  45  +36  +39  очень
душно 
1014.9  994.2         
19:51 24.05 Ю  6
{10} 
16 км    2/2 1800 м
[средняя верхняя] 
+33.3  +18.9  43  +38  +43  очень
душно 
1013.9  993.2         
20:51 24.05 Ю  16 км    5/0 2550 м
[средняя верхняя] 
+32.8  +17.8  41  +37  +39  очень
душно 
1013.3  992.5         
21:51 24.05 Ю  7
{11} 
16 км    2/0 2100 м
[средняя верхняя] 
+32.2  +18.3  44  +37  +38  очень
душно 
1012.6  991.8         
22:51 24.05 Ю  7
{11} 
16 км    2/0 2100 м
[средняя верхняя] 
+31.1  +17.8  45  +35  +36  очень
душно 
1012.3  991.5  +31.1  +33.3     
23:51 24.05 Ю  16 км    2/2 1800 м
[верхняя] 
+30.0  +17.8  48  +34  +35  очень
душно 
1012.6  991.8         
00:51 25.05 Ю  16 км    2/0 5400 м
[средняя верхняя] 
+28.9  +17.8  51  +33  +33  очень
душно 
1012.8  992.2         
01:51 25.05 Ю  16 км    5/0 7500 м
[верхняя] 
+27.8  +17.8  55  +32  +32  душно  1013.5  992.8         
02:51 25.05 Ю  16 км    8/0 7500 м
[верхняя] 
+27.8  +17.2  52  +32  +32  душно  1014.4  993.8         
03:51 25.05 ЮЗ  5
{10} 
16 км    8/0 7500 м
[верхняя] 
+26.7  +17.8  58  +31  +31  душно  1014.9  994.2         
04:51 25.05 ЮЗ  16 км    8/0 7500 м
[верхняя] 
+26.1  +17.2  58  +30  +30  душно  1014.3  993.8  +26.1  +31.1     
05:51 25.05 З  16 км    8/0 3000 м
[средняя верхняя] 
+25.0  +17.8  64  +29  +29  душно  1014.3  993.8         
06:51 25.05 З  16 км    8/2 1350 м
[средняя верхняя] 
+22.8  +15.6  64  +27  +27  душно  1013.9  993.2         
07:51 25.05   16 км    8/0 2100 м
[средняя верхняя] 
+22.8  +16.1  66  +27  +27  душно  1013.7  993.2         
08:51 25.05 Ю  16 км    10/0 7500 м
[верхняя] 
+22.8  +15.6  64  +27  +27  душно  1013.9  993.2         
09:51 25.05 ЮЗ  16 км    10/0 6000 м
[средняя верхняя] 
+23.3  +17.8  71  +29  +29  душно  1014.0  993.5         
10:51 25.05 ЮЗ  4
{10} 
16 км    10/0 3300 м
[средняя верхняя] 
+23.3  +18.3  73  +29  +29  душно  1014.3  993.5  +22.2  +26.1     
11:51 25.05 Ю  16 км    8/0 3000 м
[средняя верхняя] 
+23.9  +18.3  71  +28  +29  душно  1013.6  992.8         
12:51 25.05 ЮЗ  16 км    8/0 3000 м
[средняя] 
+23.3  +17.8  71  +29  +30  душно  1015.0  994.2         
13:51 25.05 Ю  6
{9} 
16 км    8/0 3300 м
[средняя] 
+25.6  +17.8  62  +30  +31  душно  1015.5  994.5         
14:51 25.05 ЮЗ  16 км    8/0 2700 м
[средняя верхняя] 
+26.7  +17.8  58  +31  +33  душно  1016.0  995.1         
15:51 25.05 З  16 км    8/0 2550 м
[средняя верхняя] 
+27.2  +17.8  56  +31  +36  душно  1016.1  995.5         
16:51 25.05 З  16 км    8/2 1800 м
[средняя верхняя] 
+30.0  +18.3  50  +35  +42  очень
душно 
1015.7  994.8  +23.3  +30.0     
17:51 25.05 ЮЗ  5
{10} 
16 км    8/5 1380 м
[верхняя] 
+30.6  +18.9  50  +36  +39  очень
душно 
1015.5  994.8         
18:51 25.05 ЮЗ  16 км    8/5 1500 м
[средняя верхняя] 
+31.7  +18.9  47  +37  +39  очень
душно 
1015.2  994.5         
19:51 25.05 З  16 км    8/5 1500 м
[средняя] 
+31.7  +17.8  44  +36  +38  очень
душно 
1015.2  994.5         
20:51 25.05 З  5
{9} 
16 км    5/2 1500 м
[верхняя] 
+31.7  +18.3  45  +36  +40  очень
душно 
1014.9  994.2         

 

Местоположение метеостанции Lambert-St. Louis International Airport: широта 38.7525 долгота -90.3736 высота над уровнем моря 184 м.

В архиве по умолчанию представлена погода в Сент-Луисе за последние 1-2 суток. Обновление информации о фактической погоде в базе происходит ежечасно! Архивные данные за месяц целиком и за предыдущие месяцы Вы можете получить, выбрав интересующий диапазон дат из раскрывающегося списка и нажав кнопку "Ввод!".

Внимание! Архив погоды МЕТАР в базе сайта в настоящее время начинается c 1 января 2011 г. Нет смысла пытаться выбрать более раннюю дату.

Внимание! Время в таблицах - всемирное. Для получения местного времени необходимо прибавить поправку, которая в Сент-Луисе равна -6 ч.

Ветер - указаны скорость ветра в м/с и направление, откуда дует ветер: С - северный, СВ - северо-восточный, В - восточный, ЮВ - юго-восточный, Ю - южный, ЮЗ - юго-западный, З - западный, СЗ - северо-западный.
Видимость - горизонтальная дальность видимости в метрах или километрах. При видимости от 1 до 10 км при отсутствии осадков обычно наблюдается дымка, при ухудшении видимости до 1 км и менее - туман. В сухую погоду видимость может ухудшаться дымом, пылью или мглою.
Атмосферные явления - указаны явления, наблюдавшиеся в указанный момент времени.
Облачность - указаны через наклонную черту верхняя и нижняя облачность в баллах и высота нижней границы облаков в метрах. Внимание: облачность, как и прочие метеорологические величины в США измеряются автоматическими метеостанциями. Указанные значения в баллах носят условный характер и показывают процент времени, в течение которого, в среднем, лазерный луч высотомера отражался от облаков обратно.
T - Температура воздуха - температура, измеренная на высоте 2 м над землей.
Td - Температура точки росы - температура, при понижении до которой содержащийся в воздухе водяной пар достигнет насыщения.
f - Относительная влажность воздуха - влажноcть воздуха, измеренная на высоте 2 м над землей.
Te - Эффективная температура - температура, которую ощущает одетый по сезону человек в тени. Характеристика душности погоды. При расчете учитывается влияние влажности воздуха и скорости ветра на теплоощущения человека.
Tes - Эффективная температура на солнце - температура, которую ощущает человек, с поправкой на солнечный нагрев. Характеристика знойности погоды. Зависит от высоты солнца над горизонтом, облачности и скорости ветра. Ночью, в пасмурную погоду, а также при ветре 12 м/с и более поправка равна нулю.
P - Атмосферное давление - приведенное к уровню моря атмосферное давление.
Po - Атмосферное давление - измеренное на уровне метеостанции атмосферное давление.
Tmin - Минимальная температура - минимум температуры воздуха на высоте 2 м над землей.
Tmax - Максимальная температура - максимум температуры воздуха на высоте 2 м над землей.
R - Количество осадков - Количество выпавших осадков за 3 или 6 часов, мм.
SD - Снежный покров - Высота снежного покрова, см.